Regional Weather Roundup
Issued by NWS Bismarck, ND

Home | Current Version | Previous Version | Text Only | Print | Product List | Glossary On
Versions: 1 2 3 4 5 6 7 8 9 10 11 12 13 14 15 16 17 18 19 20 21 22 23 24 25 26 27 28 29 30 31 32 33 34 35 36 37 38 39 40 41 42 43 44 45 46 47 48 49 50
000
ASUS43 KBIS 310010
RWRBIS

NWR BROADCAST TEXT
NATIONAL WEATHER SERVICE BISMARCK ND
700 PM CDT TUE AUG 30 2016

NOTE: "FAIR" INDICATES FEW OR NO CLOUDS BELOW 12,000 FEET WITH NO
SIGNIFICANT WEATHER AND/OR OBSTRUCTIONS TO VISIBILITY.


CITY           SKY/WX    TMP DP  RH WIND       PRES   REMARKS
WILLISTON      CLOUDY    82  51  34 SE12      30.13S
MINOT          PTSUNNY   82  47  29 E9        30.17S
MINOT AFB      MOSUNNY   80  46  30 SE9       30.16F
BISMARCK       SUNNY     81  51  35 SE7       30.17R
DICKINSON      PTSUNNY   77  51  40 SE14      30.14F
GARRISON         N/A     79  50  36 SE8       30.16S
HETTINGER ARPT MOSUNNY   82  62  50 E10       30.16R
JAMESTOWN      SUNNY     76  55  48 E6        30.19F
CARRINGTON     FAIR      77  52  41 SE8       30.22S
HAZEN          FAIR      81  45  28 SE7       30.16S
LINTON         FAIR      77  57  50 E10       30.19S
MANDAN         FAIR      77  48  36 SE10      30.17F
OAKES            N/A    N/A N/A N/A MISG        N/A
RUGBY          FAIR      75  52  43 CALM      30.19F
STANLEY        FAIR      79  46  31 SE13      30.20S
WATFORD CITY   FAIR      79  54  41 E12       30.14R
$$

CITY           SKY/WX    TMP DP  RH WIND       PRES   REMARKS
GRAND FORKS    MOSUNNY   79  55  43 NE6       30.17F
GRAND FORKS AF SUNNY     77  58  51 N5        30.18F
DEVILS LAKE    SUNNY     76  52  43 CALM      30.21F
FARGO          SUNNY     77  54  44 N6        30.18S
CAVALIER       FAIR      75  50  41 NE7       30.19F
GRAFTON        FAIR      75  52  43 N8        30.20S
GWINNER        FAIR      73  61  64 E6        30.20S
LANGDON        FAIR      73  54  49 NE6       30.22S
ROLLA            N/A     73  54  49 E5        30.23F
$$

CITY           SKY/WX    TMP DP  RH WIND       PRES   REMARKS
ABERDEEN       CLOUDY    78  55  44 E7        30.17R
MOBRIDGE       MOSUNNY   83  56  39 E14       30.13S
BUFFALO          N/A     85  59  41 SE18      30.07F
RAPID CITY     CLOUDY    79  62  56 SE6       30.17F
GLASGOW        SUNNY     85  57  38 SE15      30.03S
SIDNEY         MOSUNNY   85  62  46 SE10      30.08S
WOLF POINT     SUNNY     86  61  42 E15       30.05F
GLENDIVE       CLOUDY    84  59  42 SE9       30.08S
MILES CITY     SUNNY     92  54  27 SE18G26   30.00F HX  90
BAKER          MOSUNNY   83  56  39 SE22G29   30.12S
$$

CITY           SKY/WX    TMP DP  RH WIND       PRES   REMARKS
BILLINGS       MOSUNNY   88  42  20 NE8       30.06S
GREAT FALLS    CLOUDY    85  39  19 NE8       30.03F
REGINA         SUNNY     82  48  30 E15       30.14S
ESTEVAN        PTSUNNY   81  46  30 SE13      30.15F
$$





USA.gov is the U.S. government's official web portal to all federal, state and local government web resources and services.